Weather History for Prague, Czech Republic

Change the Weather History Date:

Monday, August 27, 2012

  Actual Average Record
Temperature  
Mean Temperature 62 °F -  
Max Temperature 70 °F 67 °F 86 °F (2001)
Min Temperature 55 °F 48 °F 46 °F (1998)
Degree Days  
Heating Degree Days 2    
Growing Degree Days 12 (Base 50)    
Moisture  
Dew Point 50 °F    
Average Humidity 67    
Maximum Humidity 88    
Minimum Humidity 43    
Precipitation  
Precipitation 0.00 in 0.06 in - ()
Sea Level Pressure  
Sea Level Pressure 30.13 in    
Wind  
Wind Speed 10 mph ()    
Max Wind Speed 16 mph    
Max Gust Speed -    
Visibility 6.2 miles    
Events      
Averages and records for this station are not official NWS values.
T = Trace of Precipitation, MM = Missing Value Source: Averaged Metar Reports

Daily Weather History Graph

Daily Weather History Graph

Search for Another Location

Airport:

Trip Planner

Search our weather history database for the weather conditions in past years. The results will help you decide how hot, cold, wet, or windy it might be!

Date:

Astronomy

Aug. 27, 2012 Rise Set
Actual Time 6:10 AM CEST 7:57 PM CEST
Civil Twilight 5:36 AM CEST 8:31 PM CEST
Nautical Twilight 4:54 AM CEST 9:13 PM CEST
Astronomical Twilight 4:07 AM CEST 9:59 PM CEST
Moon 5:19 PM CEST (8/27) 1:16 AM CEST (8/27)
Length of Visible Light 14h 54m
Length of Day
13h 46m
Waxing Gibbous, 80% of the Moon is Illuminated
Aug 27
Waxing Gibbous
Aug 31
Full
Sep 8
Last Quarter
Sep 16
New
Sep 22
First Quarter

Hourly Weather History & Observations

Time (CEST) Temp. Dew Point Humidity Pressure Visibility Wind Dir Wind Speed Gust Speed Precip Events Conditions
12:00 AM 57.2 °F 51.8 °F 82% 30.01 in - WSW 16.1 mph - N/A   Clear
12:30 AM 59.0 °F 51.8 °F 77% 30.01 in 6.2 mi WSW 13.8 mph - N/A   Partly Cloudy
1:00 AM 59.0 °F 51.8 °F 77% 30.04 in 6.2 mi WSW 13.8 mph - N/A   Partly Cloudy
1:30 AM 59.0 °F 51.8 °F 77% 30.04 in - WSW 12.7 mph - N/A   Clear
2:00 AM 58 °F 52 °F 75% 30.04 in 31 mi West 11.2 mph - -   Mostly Cloudy
2:00 AM 59.0 °F 51.8 °F 77% 30.04 in - West 12.7 mph - N/A   Clear
2:30 AM 57.2 °F 51.8 °F 82% 30.04 in 6.2 mi West 10.4 mph - N/A   Scattered Clouds
3:00 AM 57.2 °F 51.8 °F 82% 30.06 in 6.2 mi WSW 10.4 mph - N/A   Scattered Clouds
3:30 AM 57.2 °F 51.8 °F 82% 30.06 in 6.2 mi SW 9.2 mph - N/A   Scattered Clouds
4:00 AM 57.2 °F 51.8 °F 82% 30.06 in 6.2 mi WSW 12.7 mph - N/A   Partly Cloudy
4:30 AM 57.2 °F 51.8 °F 82% 30.06 in 6.2 mi West 10.4 mph - N/A   Partly Cloudy
5:00 AM 57.2 °F 51.8 °F 82% 30.06 in 6.2 mi WSW 12.7 mph - N/A   Scattered Clouds
5:30 AM 57.2 °F 51.8 °F 82% 30.06 in 6.2 mi WSW 13.8 mph - N/A   Scattered Clouds
6:00 AM 55.4 °F 51.8 °F 88% 30.09 in 6.2 mi West 10.4 mph - N/A   Partly Cloudy
6:30 AM 55.4 °F 51.8 °F 88% 30.09 in 6.2 mi WSW 11.5 mph - N/A   Scattered Clouds
7:00 AM 57.2 °F 53.6 °F 88% 30.12 in 6.2 mi West 12.7 mph - N/A   Mostly Cloudy
7:30 AM 57.2 °F 53.6 °F 88% 30.12 in 6.2 mi West 8.1 mph - N/A   Scattered Clouds
8:00 AM 59.0 °F 53.6 °F 82% 30.15 in 6.2 mi West 10.4 mph - N/A   Mostly Cloudy
8:30 AM 59.0 °F 53.6 °F 82% 30.15 in 6.2 mi West 6.9 mph - N/A   Mostly Cloudy
9:00 AM 59.0 °F 51.8 °F 77% 30.15 in 6.2 mi WNW 8.1 mph - N/A   Mostly Cloudy
9:30 AM 59.0 °F 51.8 °F 77% 30.18 in 6.2 mi WNW 9.2 mph - N/A   Mostly Cloudy
10:00 AM 62.6 °F 51.8 °F 68% 30.18 in 6.2 mi NW 8.1 mph - N/A   Mostly Cloudy
10:30 AM 62.6 °F 50.0 °F 63% 30.18 in 6.2 mi NNW 9.2 mph - N/A   Scattered Clouds
11:00 AM 66.2 °F 50.0 °F 56% 30.18 in 6.2 mi NW 10.4 mph - N/A   Scattered Clouds
11:30 AM 64.4 °F 48.2 °F 56% 30.18 in 6.2 mi NW 9.2 mph - N/A   Mostly Cloudy
12:00 PM 64.4 °F 50.0 °F 59% 30.18 in 6.2 mi NW 10.4 mph - N/A   Scattered Clouds
12:30 PM 68.0 °F 50.0 °F 52% 30.18 in 6.2 mi West 12.7 mph - N/A   Mostly Cloudy
1:00 PM 66.2 °F 50.0 °F 56% 30.18 in 6.2 mi West 11.5 mph - N/A   Scattered Clouds
1:30 PM 64.4 °F 50.0 °F 59% 30.18 in 6.2 mi WNW 9.2 mph - N/A   Scattered Clouds
2:00 PM 66 °F 49 °F 43% 30.16 in 47 mi West 6.7 mph - -   Partly Cloudy
2:00 PM 66.2 °F 50.0 °F 56% 30.18 in 6.2 mi WNW 9.2 mph - N/A   Scattered Clouds
2:30 PM 68.0 °F 48.2 °F 49% 30.18 in 6.2 mi WNW 6.9 mph - N/A   Scattered Clouds
3:00 PM 66.2 °F 48.2 °F 52% 30.18 in 6.2 mi NW 10.4 mph - N/A   Scattered Clouds
3:30 PM 68.0 °F 48.2 °F 49% 30.15 in 6.2 mi NW 11.5 mph - N/A   Scattered Clouds
4:00 PM 68.0 °F 48.2 °F 49% 30.15 in 6.2 mi WNW 8.1 mph - N/A   Scattered Clouds
4:30 PM 69.8 °F 46.4 °F 43% 30.15 in - NW 8.1 mph - N/A   Clear
5:00 PM 68.0 °F 48.2 °F 49% 30.15 in - NW 8.1 mph - N/A   Clear
5:30 PM 69.8 °F 48.2 °F 46% 30.15 in - NW 8.1 mph - N/A   Clear
6:00 PM 68.0 °F 46.4 °F 46% 30.15 in - NW 8.1 mph - N/A   Clear
6:30 PM 68.0 °F 48.2 °F 49% 30.15 in - North 5.8 mph - N/A   Clear
7:00 PM 66.2 °F 48.2 °F 52% 30.15 in - North 6.9 mph - N/A   Clear
7:30 PM 64.4 °F 48.2 °F 56% 30.15 in - NNE 5.8 mph - N/A   Clear
8:00 PM 62 °F 48 °F 49% 30.15 in 44 mi ENE 6.7 mph - -   Scattered Clouds
8:00 PM 62.6 °F 48.2 °F 59% 30.15 in - ENE 5.8 mph - N/A   Clear
8:30 PM 60.8 °F 48.2 °F 63% 30.15 in - NE 5.8 mph - N/A   Clear
9:00 PM 60.8 °F 48.2 °F 63% 30.18 in - ENE 5.8 mph - N/A   Clear
9:30 PM 57.2 °F 48.2 °F 72% 30.18 in - East 6.9 mph - N/A   Clear
10:00 PM 57.2 °F 46.4 °F 67% 30.18 in - East 6.9 mph - N/A   Clear
10:30 PM 55.4 °F 46.4 °F 72% 30.18 in - East 6.9 mph - N/A   Clear
11:00 PM 55.4 °F 46.4 °F 72% 30.18 in - SE 4.6 mph - N/A   Clear
11:30 PM 57.2 °F 48.2 °F 72% 30.18 in - SSE 4.6 mph - N/A   Clear